When you browse on this site, cookies collect data to enhance your experience and personalize the content and advertising you see.
Visit our Privacy Policy to learn more. By continuing to use the site, you agree to this use of cookies and data.
  • In United Kingdom
  • List of Countries
  • For 7 days
  • Water Temperature
  • Weather Map
  • Weather Widgets
  • user-avatar
    Login

    Hourly Weather Hartford

    Today, 19 February, Wednesday

    Time Temperature Precipitation Wind Pressure Humidity
    00:00 +1°C° 0.1 mm 6 mps 757 mmHg 74%
    01:00 +1°C° 0.1 mm 5 mps 757 mmHg 75%
    02:00 +1°C° 0.1 mm 5 mps 758 mmHg 76%
    03:00 +1°C° 0.1 mm 5 mps 758 mmHg 76%
    04:00 +1°C° 0 mm 5 mps 758 mmHg 77%
    05:00 +1°C° 0 mm 5 mps 759 mmHg 78%
    06:00 0°C° 0 mm 4 mps 759 mmHg 78%
    07:00 +1°C° 0 mm 4 mps 759 mmHg 78%
    08:00 +1°C° 0 mm 4 mps 759 mmHg 78%
    09:00 +3°C° 0 mm 4 mps 759 mmHg 77%
    10:00 +3°C° 0.2 mm 4 mps 758 mmHg 82%
    11:00 +3°C° 0.2 mm 4 mps 758 mmHg 86%
    12:00 +4°C° 0.2 mm 4 mps 757 mmHg 90%
    13:00 +3°C° 0.5 mm 5 mps 756 mmHg 90%
    14:00 +4°C° 0.5 mm 6 mps 755 mmHg 90%
    15:00 +5°C° 0.5 mm 6 mps 754 mmHg 91%
    16:00 +5°C° 0.9 mm 6 mps 753 mmHg 90%
    17:00 +7°C° 0.9 mm 6 mps 753 mmHg 90%
    18:00 +7°C° 0.9 mm 6 mps 752 mmHg 90%
    19:00 +6°C° 0.3 mm 7 mps 752 mmHg 89%
    20:00 +6°C° 0.3 mm 7 mps 751 mmHg 88%
    21:00 +8°C° 0.3 mm 7 mps 751 mmHg 88%
    22:00 +8°C° 0.2 mm 7 mps 751 mmHg 88%
    23:00 +8°C° 0.2 mm 7 mps 751 mmHg 88%

    Tomorrow, 20 February, Thursday

    Time Temperature Precipitation Wind Pressure Humidity
    00:00 +8°C° 0.2 mm 7 mps 750 mmHg 88%
    01:00 +8°C° 0.1 mm 7 mps 749 mmHg 87%
    02:00 +8°C° 0.1 mm 7 mps 748 mmHg 86%
    03:00 +8°C° 0.1 mm 7 mps 748 mmHg 85%
    04:00 +7°C° 0 mm 8 mps 747 mmHg 85%
    05:00 +7°C° 0 mm 8 mps 746 mmHg 84%
    06:00 +7°C° 0 mm 8 mps 745 mmHg 83%
    07:00 +6°C° 0.8 mm 8 mps 745 mmHg 86%
    08:00 +6°C° 0.8 mm 8 mps 745 mmHg 88%
    09:00 +6°C° 0.8 mm 8 mps 745 mmHg 90%
    10:00 +5°C° 1.1 mm 8 mps 746 mmHg 88%
    11:00 +4°C° 1.1 mm 8 mps 747 mmHg 86%
    12:00 +2°C° 1.1 mm 8 mps 748 mmHg 85%
    13:00 +2°C° 0.1 mm 8 mps 749 mmHg 76%
    14:00 +2°C° 0.1 mm 8 mps 750 mmHg 68%
    15:00 +2°C° 0.1 mm 9 mps 751 mmHg 59%
    16:00 +1°C° 0.1 mm 8 mps 752 mmHg 62%
    17:00 +2°C° 0.1 mm 7 mps 753 mmHg 64%
    18:00 0°C° 0.1 mm 7 mps 754 mmHg 67%
    19:00 0°C° 0.1 mm 7 mps 755 mmHg 68%
    20:00 0°C° 0.1 mm 7 mps 756 mmHg 69%
    21:00 0°C° 0.1 mm 7 mps 756 mmHg 70%
    22:00 0°C° 0 mm 7 mps 757 mmHg 72%
    23:00 0°C° 0 mm 7 mps 758 mmHg 74%

    Day after tomorrow, 21 February, Friday

    Time Temperature Precipitation Wind Pressure Humidity
    00:00 0°C° 0 mm 7 mps 759 mmHg 76%
    01:00 +1°C° 0 mm 6 mps 759 mmHg 77%
    02:00 +1°C° 0 mm 6 mps 759 mmHg 78%
    03:00 +1°C° 0 mm 5 mps 760 mmHg 79%
    04:00 +1°C° 0 mm 5 mps 760 mmHg 80%
    05:00 +1°C° 0 mm 5 mps 760 mmHg 80%
    06:00 +2°C° 0 mm 5 mps 760 mmHg 81%
    13:00 +7°C° 0 mm 9 mps 759 mmHg 72%
    14:00 +7°C° 0 mm 9 mps 758 mmHg 72%
    15:00 +7°C° 0 mm 10 mps 757 mmHg 73%
    16:00 +7°C° 0 mm 9 mps 757 mmHg 74%
    17:00 +7°C° 0 mm 9 mps 757 mmHg 74%
    18:00 +7°C° 0 mm 9 mps 757 mmHg 75%
    19:00 +7°C° 0.1 mm 8 mps 756 mmHg 78%
    20:00 +7°C° 0.1 mm 8 mps 756 mmHg 80%
    21:00 +9°C° 0.1 mm 7 mps 756 mmHg 82%
    22:00 +9°C° 0 mm 7 mps 756 mmHg 83%
    23:00 +9°C° 0 mm 7 mps 756 mmHg 84%

    22 February, Saturday

    Time Temperature Precipitation Wind Pressure Humidity
    00:00 +9°C° 0 mm 7 mps 756 mmHg 84%
    01:00 +9°C° 0 mm 7 mps 756 mmHg 85%
    02:00 +9°C° 0 mm 7 mps 755 mmHg 86%
    03:00 +9°C° 0 mm 7 mps 755 mmHg 87%
    04:00 +9°C° 0.2 mm 7 mps 755 mmHg 86%
    05:00 +10°C° 0.2 mm 8 mps 754 mmHg 85%
    06:00 +10°C° 0.2 mm 8 mps 754 mmHg 84%
    07:00 +10°C° 0.2 mm 8 mps 754 mmHg 83%
    08:00 +9°C° 0.2 mm 8 mps 754 mmHg 82%
    09:00 +9°C° 0.2 mm 7 mps 755 mmHg 81%
    10:00 +10°C° 0.1 mm 8 mps 755 mmHg 76%
    11:00 +10°C° 0.1 mm 9 mps 755 mmHg 70%
    12:00 +9°C° 0.1 mm 10 mps 756 mmHg 64%
    13:00 +8°C° 0 mm 10 mps 756 mmHg 66%
    14:00 +8°C° 0 mm 9 mps 756 mmHg 68%
    15:00 +7°C° 0 mm 9 mps 756 mmHg 70%
    16:00 +7°C° 0.1 mm 8 mps 757 mmHg 71%
    17:00 +6°C° 0.1 mm 7 mps 758 mmHg 72%
    18:00 +7°C° 0.1 mm 6 mps 758 mmHg 72%
    19:00 +7°C° 0 mm 6 mps 759 mmHg 73%
    20:00 +5°C° 0 mm 6 mps 759 mmHg 74%
    21:00 +5°C° 0 mm 6 mps 760 mmHg 75%
    22:00 +5°C° 0.1 mm 6 mps 760 mmHg 77%
    23:00 +5°C° 0.1 mm 6 mps 760 mmHg 79%

    23 February, Sunday

    Time Temperature Precipitation Wind Pressure Humidity
    00:00 +5°C° 0.1 mm 6 mps 760 mmHg 81%
    01:00 +5°C° 0.5 mm 5 mps 760 mmHg 84%
    02:00 +5°C° 0.5 mm 5 mps 760 mmHg 87%
    03:00 +5°C° 0.5 mm 4 mps 759 mmHg 90%
    04:00 +5°C° 1.1 mm 3 mps 759 mmHg 92%
    05:00 +5°C° 1.1 mm 3 mps 758 mmHg 93%
    06:00 +6°C° 1.1 mm 2 mps 757 mmHg 95%
    07:00 +6°C° 1.4 mm 2 mps 757 mmHg 95%
    08:00 +7°C° 1.4 mm 1 mps 756 mmHg 96%
    09:00 +8°C° 1.4 mm 1 mps 755 mmHg 96%
    10:00 +7°C° 0.7 mm 2 mps 756 mmHg 96%
    11:00 +7°C° 0.7 mm 2 mps 756 mmHg 95%
    12:00 +8°C° 0.7 mm 2 mps 756 mmHg 94%
    13:00 +7°C° 0.1 mm 3 mps 756 mmHg 92%
    14:00 +7°C° 0.1 mm 3 mps 757 mmHg 90%
    15:00 +5°C° 0.1 mm 4 mps 758 mmHg 88%
    16:00 +5°C° 0 mm 4 mps 759 mmHg 88%
    17:00 +5°C° 0 mm 5 mps 760 mmHg 87%
    18:00 +5°C° 0 mm 5 mps 761 mmHg 86%
    19:00 +4°C° 0 mm 4 mps 762 mmHg 85%
    20:00 +3°C° 0 mm 3 mps 764 mmHg 84%
    21:00 +4°C° 0 mm 2 mps 765 mmHg 83%
    22:00 +4°C° 0 mm 1 mps 765 mmHg 85%
    23:00 +4°C° 0 mm 1 mps 766 mmHg 86%

    24 February, Monday

    Time Temperature Precipitation Wind Pressure Humidity
    00:00 +4°C° 0 mm 1 mps 766 mmHg 88%
    01:00 +3°C° 0 mm 2 mps 766 mmHg 87%
    02:00 +3°C° 0 mm 2 mps 765 mmHg 87%
    03:00 +3°C° 0 mm 3 mps 765 mmHg 86%
    04:00 +3°C° 0.1 mm 3 mps 764 mmHg 85%
    05:00 +3°C° 0.1 mm 4 mps 764 mmHg 84%
    06:00 +2°C° 0.1 mm 5 mps 763 mmHg 84%
    07:00 +3°C° 0 mm 5 mps 762 mmHg 86%
    08:00 +5°C° 0 mm 5 mps 761 mmHg 89%
    09:00 +6°C° 0 mm 5 mps 761 mmHg 92%
    10:00 +8°C° 0 mm 6 mps 760 mmHg 85%
    11:00 +9°C° 0 mm 7 mps 759 mmHg 79%
    12:00 +11°C° 0 mm 8 mps 758 mmHg 73%
    13:00 +11°C° 0 mm 8 mps 757 mmHg 73%
    14:00 +11°C° 0 mm 9 mps 756 mmHg 72%
    15:00 +11°C° 0 mm 9 mps 756 mmHg 72%
    16:00 +10°C° 0.2 mm 8 mps 755 mmHg 76%
    17:00 +9°C° 0.2 mm 8 mps 755 mmHg 80%
    18:00 +9°C° 0.2 mm 7 mps 754 mmHg 84%
    19:00 +9°C° 0.7 mm 7 mps 754 mmHg 86%
    20:00 +8°C° 0.7 mm 6 mps 754 mmHg 88%
    21:00 +8°C° 0.7 mm 5 mps 754 mmHg 90%
    22:00 +8°C° 0.5 mm 5 mps 754 mmHg 88%
    23:00 +7°C° 0.5 mm 4 mps 753 mmHg 86%
    Show more